| time (UTC) | temp F | wind direction | speed knots | gust knots | rain 1hr in | rain 24hr in | rain mn in | humidity % | barometer mb |
| 20260503005711 | 63 | 155 | 1.7 | 3.5 | 0.00 | 0.00 | 0.00 | 37 | 1008.6 |
| 20260503005208 | 64 | 183 | 0.9 | 7.0 | 0.00 | 0.00 | 0.00 | 35 | 1008.5 |
| 20260503004704 | 64 | 215 | 4.3 | 5.2 | 0.00 | 0.00 | 0.00 | 35 | 1008.6 |
| 20260503004203 | 64 | 191 | 1.7 | 5.2 | 0.00 | 0.00 | 0.00 | 35 | 1008.8 |
| 20260503003659 | 63 | 251 | 3.5 | 5.2 | 0.00 | 0.00 | 0.00 | 35 | 1008.9 |
| 20260503003156 | 64 | 215 | 0.9 | 2.6 | 0.00 | 0.00 | 0.00 | 37 | 1009.0 |
| 20260503002653 | 63 | 214 | 1.7 | 7.0 | 0.00 | 0.00 | 0.00 | 36 | 1009.0 |
| 20260503002149 | 64 | 239 | 1.7 | 8.7 | 0.00 | 0.00 | 0.00 | 36 | 1009.2 |
| 20260503001646 | 63 | 234 | 3.5 | 7.8 | 0.00 | 0.00 | 0.00 | 36 | 1009.1 |
| 20260503001143 | 63 | 233 | 3.5 | 6.1 | 0.00 | 0.00 | 0.00 | 36 | 1009.4 |
| 20260503000641 | 64 | 233 | 5.2 | 7.0 | 0.00 | 0.00 | 0.00 | 35 | 1009.5 |
| 20260503000137 | 63 | 185 | 5.2 | 7.8 | 0.00 | 0.00 | 0.00 | 35 | 1009.7 |
| 20260502235634 | 64 | 255 | 5.2 | 7.8 | 0.00 | 0.00 | 0.00 | 35 | 1010.0 |
| 20260502235132 | 64 | 220 | 2.6 | 11.3 | 0.00 | 0.00 | 0.00 | 36 | 1010.2 |
| 20260502234627 | 64 | 185 | 3.5 | 5.2 | 0.00 | 0.00 | 0.00 | 36 | 1010.3 |
| 20260502234125 | 63 | 242 | 5.2 | 7.0 | 0.00 | 0.00 | 0.00 | 36 | 1010.4 |
| 20260502233621 | 64 | 203 | 0.9 | 2.6 | 0.00 | 0.00 | 0.00 | 40 | 1010.3 |
| 20260502233118 | 64 | 240 | 2.6 | 5.2 | 0.00 | 0.00 | 0.00 | 35 | 1010.5 |
| 20260502232614 | 64 | 237 | 4.3 | 6.1 | 0.00 | 0.00 | 0.00 | 37 | 1010.5 |
| 20260502232112 | 63 | 199 | 0.9 | 5.2 | 0.00 | 0.00 | 0.00 | 37 | 1010.7 |
| 20260502231608 | 63 | 275 | 3.5 | 9.6 | 0.00 | 0.00 | 0.00 | 40 | 1010.8 |
| 20260502231106 | 63 | 254 | 4.3 | 8.7 | 0.00 | 0.00 | 0.00 | 37 | 1011.0 |
| 20260502230604 | 63 | 253 | 2.6 | 3.5 | 0.00 | 0.00 | 0.00 | 36 | 1011.0 |
| 20260502225557 | 63 | 239 | 1.7 | 3.5 | 0.00 | 0.00 | 0.00 | 37 | 1011.3 |
| 20260502225055 | 63 | 288 | 0.9 | 3.5 | 0.00 | 0.00 | 0.00 | 38 | 1011.4 |
| 20260502224551 | 63 | 229 | 1.7 | 2.6 | 0.00 | 0.00 | 0.00 | 37 | 1011.4 |
| 20260502224048 | 63 | 274 | 2.6 | 2.6 | 0.00 | 0.00 | 0.00 | 39 | 1011.5 |
| 20260502223546 | 62 | 196 | 0.9 | 2.6 | 0.00 | 0.00 | 0.00 | 40 | 1011.6 |
| 20260502223044 | 62 | 251 | 2.6 | 5.2 | 0.00 | 0.00 | 0.00 | 38 | 1011.8 |
| 20260502222541 | 62 | 260 | 4.3 | 6.1 | 0.00 | 0.00 | 0.00 | 36 | 1011.8 |
| 20260502222037 | 62 | 242 | 4.3 | 7.0 | 0.00 | 0.00 | 0.00 | 37 | 1011.7 |
| 20260502221533 | 62 | 264 | 2.6 | 6.1 | 0.00 | 0.00 | 0.00 | 37 | 1011.7 |
| 20260502221031 | 62 | 259 | 2.6 | 3.5 | 0.00 | 0.00 | 0.00 | 36 | 1011.9 |
| 20260502220526 | 62 | 254 | 8.7 | 13.0 | 0.00 | 0.00 | 0.00 | 35 | 1012.0 |
| 20260502220023 | 63 | 253 | 5.2 | 8.7 | 0.00 | 0.00 | 0.00 | 36 | 1012.2 |
| 20260502215520 | 63 | 301 | 10.4 | 14.8 | 0.00 | 0.00 | 0.00 | 34 | 1012.2 |
| 20260502215017 | 63 | 254 | 5.2 | 14.8 | 0.00 | 0.00 | 0.00 | 34 | 1012.2 |
| 20260502214514 | 63 | 273 | 9.6 | 12.2 | 0.00 | 0.00 | 0.00 | 32 | 1012.4 |
| 20260502214012 | 64 | 299 | 5.2 | 13.0 | 0.00 | 0.00 | 0.00 | 35 | 1012.0 |
| 20260502213508 | 64 | 281 | 6.1 | 7.8 | 0.00 | 0.00 | 0.00 | 33 | 1012.0 |
| 20260502213006 | 64 | 274 | 5.2 | 7.8 | 0.00 | 0.00 | 0.00 | 34 | 1011.9 |
| 20260502212504 | 64 | 286 | 3.5 | 7.0 | 0.00 | 0.00 | 0.00 | 34 | 1012.0 |
| 20260502212001 | 64 | 238 | 2.6 | 2.6 | 0.00 | 0.00 | 0.00 | 34 | 1012.4 |
| 20260502211457 | 64 | 230 | 6.1 | 11.3 | 0.00 | 0.00 | 0.00 | 34 | 1012.2 |
| 20260502210955 | 64 | 335 | 2.6 | 9.6 | 0.00 | 0.00 | 0.00 | 32 | 1012.1 |
| 20260502210451 | 65 | 275 | 6.1 | 9.6 | 0.00 | 0.00 | 0.00 | 36 | 1012.2 |
| 20260502205948 | 65 | 273 | 5.2 | 8.7 | 0.00 | 0.00 | 0.00 | 33 | 1012.1 |
| 20260502205444 | 66 | 278 | 2.6 | 11.3 | 0.00 | 0.00 | 0.00 | 33 | 1012.2 |
| 20260502204942 | 66 | 265 | 4.3 | 7.8 | 0.00 | 0.00 | 0.00 | 35 | 1012.5 |
| 20260502204439 | 65 | 232 | 5.2 | 7.8 | 0.00 | 0.00 | 0.00 | 34 | 1012.1 |
| 20260502203937 | 65 | 272 | 4.3 | 9.6 | 0.00 | 0.00 | 0.00 | 36 | 1012.4 |
| 20260502203434 | 65 | 247 | 5.2 | 13.0 | 0.00 | 0.00 | 0.00 | 34 | 1012.4 |
| 20260502202930 | 66 | 242 | 7.0 | 9.6 | 0.00 | 0.00 | 0.00 | 34 | 1012.5 |
| 20260502202427 | 66 | 209 | 5.2 | 8.7 | 0.00 | 0.00 | 0.00 | 35 | 1012.6 |
| 20260502201925 | 66 | 295 | 5.2 | 9.6 | 0.00 | 0.00 | 0.00 | 34 | 1012.5 |
| 20260502201420 | 66 | 223 | 5.2 | 7.8 | 0.00 | 0.00 | 0.00 | 33 | 1012.6 |
| 20260502200918 | 67 | 269 | 4.3 | 13.0 | 0.00 | 0.00 | 0.00 | 34 | 1012.7 |
| 20260502200413 | 66 | 241 | 2.6 | 8.7 | 0.00 | 0.00 | 0.00 | 36 | 1012.7 |
| 20260502195911 | 66 | 252 | 3.5 | 8.7 | 0.00 | 0.00 | 0.00 | 35 | 1012.9 |
| 20260502195408 | 67 | 270 | 6.1 | 7.8 | 0.00 | 0.00 | 0.00 | 32 | 1012.8 |
| 20260502194904 | 67 | 271 | 3.5 | 9.6 | 0.00 | 0.00 | 0.00 | 38 | 1012.9 |
| 20260502194401 | 67 | 244 | 2.6 | 9.6 | 0.00 | 0.00 | 0.00 | 34 | 1012.9 |
| 20260502193857 | 67 | 255 | 4.3 | 12.2 | 0.00 | 0.00 | 0.00 | 34 | 1013.1 |
| 20260502193354 | 67 | 219 | 3.5 | 7.0 | 0.00 | 0.00 | 0.00 | 32 | 1013.2 |
| 20260502192849 | 67 | 268 | 8.7 | 12.2 | 0.00 | 0.00 | 0.00 | 32 | 1013.4 |
| 20260502192342 | 66 | 289 | 7.8 | 9.6 | 0.00 | 0.00 | 0.00 | 34 | 1013.2 |
| 20260502191839 | 67 | 234 | 3.5 | 8.7 | 0.00 | 0.00 | 0.00 | 36 | 1013.4 |
| 20260502191337 | 67 | 249 | 6.1 | 11.3 | 0.00 | 0.00 | 0.00 | 33 | 1013.3 |
| 20260502190834 | 67 | 235 | 4.3 | 6.1 | 0.00 | 0.00 | 0.00 | 33 | 1013.8 |
| 20260502190331 | 66 | 245 | 5.2 | 11.3 | 0.00 | 0.00 | 0.00 | 36 | 1013.7 |
| 20260502185827 | 66 | 168 | 4.3 | 6.1 | 0.00 | 0.00 | 0.00 | 35 | 1013.6 |
| 20260502185323 | 67 | 327 | 5.2 | 9.6 | 0.00 | 0.00 | 0.00 | 36 | 1013.7 |
| 20260502184820 | 67 | 215 | 3.5 | 8.7 | 0.00 | 0.00 | 0.00 | 35 | 1013.7 |
| 20260502184315 | 66 | 260 | 2.6 | 11.3 | 0.00 | 0.00 | 0.00 | 35 | 1013.9 |
| 20260502183812 | 65 | 274 | 3.5 | 7.0 | 0.00 | 0.00 | 0.00 | 41 | 1014.1 |
| 20260502183308 | 65 | 233 | 5.2 | 9.6 | 0.00 | 0.00 | 0.00 | 37 | 1014.1 |
| 20260502182803 | 65 | 239 | 5.2 | 7.0 | 0.00 | 0.00 | 0.00 | 38 | 1014.2 |
| 20260502182258 | 64 | 241 | 5.2 | 9.6 | 0.00 | 0.00 | 0.00 | 39 | 1014.2 |
| 20260502181755 | 64 | 251 | 8.7 | 12.2 | 0.00 | 0.00 | 0.00 | 39 | 1014.4 |
| 20260502181255 | 64 | 216 | 7.8 | 9.6 | 0.00 | 0.00 | 0.00 | 38 | 1014.6 |
| 20260502180752 | 64 | 200 | 5.2 | 7.0 | 0.00 | 0.00 | 0.00 | 42 | 1014.4 |
| 20260502180250 | 63 | 223 | 5.2 | 9.6 | 0.00 | 0.00 | 0.00 | 40 | 1014.5 |
| 20260502170213 | 62 | 197 | 5.2 | 9.6 | 0.00 | 0.00 | 0.00 | 42 | 1015.6 |
| 20260502164200 | 61 | 195 | 4.3 | 6.1 | 0.00 | 0.00 | 0.00 | 45 | 1015.7 |
| 20260502163655 | 60 | 253 | 5.2 | 8.7 | 0.00 | 0.00 | 0.00 | 43 | 1015.7 |
| 20260502163153 | 59 | 233 | 3.5 | 5.2 | 0.00 | 0.00 | 0.00 | 45 | 1016.0 |
| 20260502162649 | 59 | 219 | 6.1 | 9.6 | 0.00 | 0.00 | 0.00 | 45 | 1015.8 |
| 20260502162147 | 59 | 194 | 3.5 | 7.8 | 0.00 | 0.00 | 0.00 | 48 | 1015.9 |
| 20260502161644 | 59 | 221 | 6.1 | 8.7 | 0.00 | 0.00 | 0.00 | 46 | 1016.1 |
| 20260502161140 | 58 | 227 | 6.1 | 7.8 | 0.00 | 0.00 | 0.00 | 46 | 1016.1 |
| 20260502160638 | 57 | 216 | 4.3 | 7.0 | 0.00 | 0.00 | 0.00 | 47 | 1016.3 |
| 20260502160137 | 57 | 171 | 1.7 | 7.0 | 0.00 | 0.00 | 0.00 | 47 | 1016.2 |
| 20260502152051 | 53 | 279 | 0.9 | 5.2 | 0.00 | 0.00 | 0.00 | 54 | 1016.7 |
| 20260502151548 | 53 | 261 | 5.2 | 7.8 | 0.00 | 0.00 | 0.00 | 52 | 1016.9 |
| 20260502151045 | 52 | 247 | 4.3 | 7.0 | 0.00 | 0.00 | 0.00 | 54 | 1016.9 |
| 20260502150543 | 52 | 211 | 1.7 | 6.1 | 0.00 | 0.00 | 0.00 | 54 | 1016.9 |
| 20260502130422 | 44 | 231 | 1.7 | 6.1 | 0.00 | 0.00 | 0.00 | 66 | 1018.6 |
| 20260502123405 | 43 | 231 | 2.6 | 5.2 | 0.00 | 0.00 | 0.00 | 69 | 1018.7 |
| 20260502122902 | 43 | 244 | 2.6 | 5.2 | 0.00 | 0.00 | 0.00 | 69 | 1018.6 |
| 20260502122358 | 43 | 214 | 1.7 | 3.5 | 0.00 | 0.00 | 0.00 | 71 | 1018.6 |
| 20260502121856 | 43 | 178 | 0.9 | 5.2 | 0.00 | 0.00 | 0.00 | 71 | 1018.6 |
| 20260502121353 | 43 | 221 | 0.9 | 2.6 | 0.00 | 0.00 | 0.00 | 70 | 1018.4 |
| 20260502120851 | 42 | 217 | 0.9 | 3.5 | 0.00 | 0.00 | 0.00 | 68 | 1018.7 |
| 20260502120347 | 42 | 232 | 3.5 | 5.2 | 0.00 | 0.00 | 0.00 | 70 | 1018.7 |
| 20260502115844 | 42 | 205 | 0.0 | 0.9 | 0.00 | 0.00 | 0.00 | 71 | 1018.7 |
| 20260502115341 | 42 | 134 | 0.9 | 1.7 | 0.00 | 0.00 | 0.00 | 72 | 1018.8 |
| 20260502114838 | 41 | 166 | 0.9 | 0.9 | 0.00 | 0.00 | 0.00 | 73 | 1018.7 |
| 20260502114335 | 41 | 239 | 1.7 | 2.6 | 0.00 | 0.00 | 0.00 | 71 | 1018.6 |
| 20260502113832 | 40 | 234 | 2.6 | 2.6 | 0.00 | 0.00 | 0.00 | 72 | 1018.8 |
| 20260502113329 | 39 | 209 | 0.0 | 0.0 | 0.00 | 0.00 | 0.00 | 73 | 1018.7 |
| 20260502112828 | 39 | 186 | 0.0 | 0.9 | 0.00 | 0.00 | 0.00 | 74 | 1018.6 |
| 20260502112324 | 39 | 177 | 0.0 | 0.9 | 0.00 | 0.00 | 0.00 | 74 | 1018.7 |
| 20260502111822 | 38 | 178 | 0.0 | 0.0 | 0.00 | 0.00 | 0.00 | 77 | 1018.7 |
| 20260502111319 | 38 | 193 | 0.0 | 0.0 | 0.00 | 0.00 | 0.00 | 77 | 1018.9 |
| 20260502110817 | 38 | 229 | 0.0 | 0.0 | 0.00 | 0.00 | 0.00 | 77 | 1019.0 |
| 20260502110315 | 38 | 216 | 0.0 | 0.9 | 0.00 | 0.00 | 0.00 | 77 | 1018.8 |
| 20260502105812 | 37 | 222 | 0.9 | 0.9 | 0.00 | 0.00 | 0.00 | 79 | 1018.8 |
| 20260502105308 | 37 | 206 | 0.0 | 0.0 | 0.00 | 0.00 | 0.00 | 79 | 1018.7 |
| 20260502104806 | 37 | 183 | 0.0 | 0.0 | 0.00 | 0.00 | 0.00 | 80 | 1018.9 |
| 20260502104303 | 37 | 235 | 0.0 | 0.9 | 0.00 | 0.00 | 0.00 | 80 | 1019.2 |
| 20260502103800 | 36 | 184 | 0.0 | 0.9 | 0.00 | 0.00 | 0.00 | 81 | 1019.0 |
| 20260502103257 | 36 | 193 | 0.0 | 0.0 | 0.00 | 0.00 | 0.00 | 81 | 1019.1 |
| 20260502102754 | 36 | 244 | 0.0 | 0.9 | 0.00 | 0.00 | 0.00 | 82 | 1019.0 |
| 20260502102251 | 35 | 240 | 0.0 | 0.9 | 0.00 | 0.00 | 0.00 | 84 | 1019.1 |
| 20260502101749 | 35 | 226 | 0.0 | 0.0 | 0.00 | 0.00 | 0.00 | 85 | 1019.2 |
| 20260502101247 | 34 | 194 | 0.0 | 0.0 | 0.00 | 0.00 | 0.00 | 85 | 1019.2 |
| 20260502100745 | 34 | 186 | 0.0 | 0.0 | 0.00 | 0.00 | 0.00 | 86 | 1019.3 |
| 20260502100243 | 34 | 198 | 0.0 | 0.0 | 0.00 | 0.00 | 0.00 | 86 | 1019.4 |
| 20260502091218 | 34 | 222 | 0.0 | 0.0 | 0.00 | 0.00 | 0.00 | 90 | 1019.4 |
| 20260502090715 | 34 | 184 | 0.0 | 0.0 | 0.00 | 0.00 | 0.00 | 91 | 1019.2 |
| 20260502090212 | 34 | 208 | 0.0 | 0.0 | 0.00 | 0.00 | 0.00 | 92 | 1019.3 |
| 20260502071107 | 35 | 223 | 0.0 | 0.0 | 0.00 | 0.00 | 0.00 | 96 | 1019.9 |
| 20260502070606 | 35 | 205 | 0.0 | 0.0 | 0.00 | 0.00 | 0.00 | 96 | 1019.9 |
| 20260502065601 | 35 | 200 | 0.0 | 0.0 | 0.00 | 0.00 | 0.00 | 97 | 1019.7 |
| 20260502065058 | 35 | 208 | 0.0 | 0.0 | 0.00 | 0.00 | 0.00 | 96 | 1019.9 |
| 20260502064551 | 35 | 208 | 0.0 | 0.0 | 0.00 | 0.00 | 0.00 | 96 | 1020.0 |
| 20260502064048 | 36 | 218 | 0.0 | 0.0 | 0.00 | 0.00 | 0.00 | 96 | 1020.0 |
| 20260502063545 | 35 | 202 | 0.0 | 0.0 | 0.00 | 0.00 | 0.00 | 96 | 1020.0 |
| 20260502063043 | 35 | 198 | 0.0 | 0.0 | 0.00 | 0.00 | 0.00 | 96 | 1020.0 |
| 20260502062540 | 34 | 194 | 0.0 | 0.0 | 0.00 | 0.00 | 0.00 | 94 | 1020.0 |
| 20260502062038 | 33 | 226 | 0.0 | 0.9 | 0.00 | 0.00 | 0.00 | 94 | 1020.0 |
| 20260502061536 | 33 | 197 | 0.0 | 0.0 | 0.00 | 0.00 | 0.00 | 92 | 1019.9 |
| 20260502061033 | 33 | 175 | 0.0 | 0.0 | 0.00 | 0.00 | 0.00 | 89 | 1020.1 |
| 20260502060528 | 33 | 174 | 0.0 | 0.0 | 0.00 | 0.00 | 0.00 | 88 | 1020.0 |
| 20260502060025 | 34 | 174 | 0.0 | 0.0 | 0.00 | 0.00 | 0.00 | 89 | 1019.9 |
| 20260502055522 | 34 | 174 | 0.0 | 0.0 | 0.00 | 0.00 | 0.00 | 91 | 1020.0 |
| 20260502055021 | 34 | 190 | 0.0 | 0.0 | 0.00 | 0.00 | 0.00 | 93 | 1020.0 |
| 20260502054520 | 34 | 191 | 0.0 | 0.0 | 0.00 | 0.00 | 0.00 | 93 | 1020.1 |
| 20260502054016 | 34 | 191 | 0.0 | 0.0 | 0.00 | 0.00 | 0.00 | 92 | 1020.3 |
| 20260502053513 | 34 | 191 | 0.0 | 0.0 | 0.00 | 0.00 | 0.00 | 89 | 1020.1 |
| 20260502053011 | 35 | 191 | 0.0 | 0.0 | 0.00 | 0.00 | 0.00 | 88 | 1019.9 |
| 20260502052509 | 35 | 191 | 0.0 | 0.0 | 0.00 | 0.00 | 0.00 | 87 | 1020.1 |
| 20260502052007 | 35 | 191 | 0.0 | 0.0 | 0.00 | 0.00 | 0.00 | 89 | 1020.2 |
| 20260502051505 | 36 | 194 | 0.0 | 0.0 | 0.00 | 0.00 | 0.00 | 87 | 1020.0 |
| 20260502051002 | 36 | 194 | 0.0 | 0.0 | 0.00 | 0.00 | 0.00 | 87 | 1020.1 |
| 20260502050458 | 36 | 192 | 0.0 | 0.0 | 0.00 | 0.00 | 0.00 | 86 | 1020.2 |
| 20260502045955 | 35 | 194 | 0.0 | 0.0 | 0.00 | 0.00 | 0.00 | 86 | 1020.2 |
| 20260502045452 | 35 | 199 | 0.0 | 0.0 | 0.00 | 0.00 | 0.00 | 88 | 1020.3 |
| 20260502044949 | 35 | 199 | 0.0 | 0.0 | 0.00 | 0.00 | 0.00 | 89 | 1020.3 |
| 20260502044444 | 35 | 204 | 0.0 | 0.0 | 0.00 | 0.00 | 0.00 | 88 | 1020.3 |
| 20260502043942 | 35 | 204 | 0.0 | 0.0 | 0.00 | 0.00 | 0.00 | 87 | 1020.4 |
| 20260502043440 | 35 | 200 | 0.0 | 0.0 | 0.00 | 0.00 | 0.00 | 86 | 1020.3 |
| 20260502042939 | 35 | 199 | 0.0 | 0.0 | 0.00 | 0.00 | 0.00 | 85 | 1020.3 |
| 20260502042436 | 35 | 199 | 0.0 | 0.0 | 0.00 | 0.00 | 0.00 | 83 | 1020.3 |
| 20260502041933 | 36 | 200 | 0.0 | 0.0 | 0.00 | 0.00 | 0.00 | 81 | 1020.3 |
| 20260502041431 | 37 | 200 | 0.0 | 0.0 | 0.00 | 0.00 | 0.00 | 80 | 1020.2 |
| 20260502040928 | 37 | 201 | 0.0 | 0.0 | 0.00 | 0.00 | 0.00 | 79 | 1020.5 |
| 20260502040424 | 37 | 192 | 0.0 | 0.0 | 0.00 | 0.00 | 0.00 | 79 | 1020.4 |
| 20260502035921 | 38 | 192 | 0.0 | 0.0 | 0.00 | 0.00 | 0.00 | 78 | 1020.4 |
| 20260502035417 | 38 | 192 | 0.0 | 0.0 | 0.00 | 0.00 | 0.00 | 73 | 1020.4 |
| 20260502034915 | 38 | 196 | 0.0 | 0.0 | 0.00 | 0.00 | 0.00 | 71 | 1020.6 |
| 20260502034414 | 38 | 200 | 0.0 | 0.0 | 0.00 | 0.00 | 0.00 | 67 | 1020.5 |
| 20260502033911 | 38 | 197 | 0.0 | 0.0 | 0.00 | 0.00 | 0.00 | 65 | 1020.6 |
| 20260502033409 | 39 | 197 | 0.0 | 0.0 | 0.00 | 0.00 | 0.00 | 63 | 1020.5 |
| 20260502032905 | 39 | 188 | 0.0 | 0.0 | 0.00 | 0.00 | 0.00 | 62 | 1020.5 |
| 20260502032402 | 39 | 196 | 0.0 | 0.0 | 0.00 | 0.00 | 0.00 | 63 | 1020.5 |
| 20260502031859 | 40 | 186 | 0.0 | 0.0 | 0.00 | 0.00 | 0.00 | 62 | 1020.6 |
| 20260502031357 | 39 | 192 | 0.0 | 0.0 | 0.00 | 0.00 | 0.00 | 62 | 1020.7 |
| 20260502030855 | 39 | 192 | 0.0 | 0.0 | 0.00 | 0.00 | 0.00 | 61 | 1020.4 |
| 20260502030353 | 40 | 192 | 0.0 | 0.0 | 0.00 | 0.00 | 0.00 | 59 | 1020.5 |
| 20260502025850 | 41 | 192 | 0.0 | 0.0 | 0.00 | 0.00 | 0.00 | 58 | 1020.3 |
| 20260502025348 | 41 | 192 | 0.0 | 0.0 | 0.00 | 0.00 | 0.00 | 57 | 1020.3 |
| 20260502024845 | 42 | 192 | 0.0 | 0.0 | 0.00 | 0.00 | 0.00 | 56 | 1020.2 |
| 20260502024343 | 41 | 192 | 0.0 | 0.0 | 0.00 | 0.00 | 0.00 | 57 | 1020.3 |
| 20260502023841 | 41 | 192 | 0.0 | 0.0 | 0.00 | 0.00 | 0.00 | 57 | 1020.2 |
| 20260502023338 | 42 | 191 | 0.0 | 0.0 | 0.00 | 0.00 | 0.00 | 58 | 1020.2 |
| 20260502022836 | 42 | 193 | 0.0 | 0.0 | 0.00 | 0.00 | 0.00 | 56 | 1020.2 |
| 20260502022332 | 42 | 195 | 0.0 | 0.0 | 0.00 | 0.00 | 0.00 | 55 | 1020.3 |
| 20260502021829 | 43 | 199 | 0.0 | 0.0 | 0.00 | 0.00 | 0.00 | 54 | 1020.3 |
| 20260502021326 | 44 | 208 | 0.0 | 0.0 | 0.00 | 0.00 | 0.00 | 53 | 1020.4 |
| 20260502020824 | 44 | 191 | 0.0 | 0.0 | 0.00 | 0.00 | 0.00 | 52 | 1020.4 |
| 20260502020321 | 45 | 203 | 0.0 | 0.0 | 0.00 | 0.00 | 0.00 | 51 | 1020.2 |
| 20260502015818 | 46 | 224 | 0.0 | 0.0 | 0.00 | 0.00 | 0.00 | 49 | 1020.3 |
| 20260502015315 | 47 | 259 | 0.0 | 0.9 | 0.00 | 0.00 | 0.00 | 47 | 1020.1 |
| 20260502014812 | 47 | 307 | 0.9 | 0.9 | 0.00 | 0.00 | 0.00 | 47 | 1020.1 |
| 20260502014309 | 48 | 333 | 0.9 | 1.7 | 0.00 | 0.00 | 0.00 | 46 | 1020.1 |
| 20260502013805 | 48 | 260 | 0.0 | 1.7 | 0.00 | 0.00 | 0.00 | 44 | 1020.0 |
| 20260502013301 | 48 | 328 | 1.7 | 2.6 | 0.00 | 0.00 | 0.00 | 44 | 1020.0 |
| 20260502012757 | 48 | 338 | 1.7 | 2.6 | 0.00 | 0.00 | 0.00 | 45 | 1020.2 |
| 20260502012255 | 49 | 281 | 0.9 | 2.6 | 0.00 | 0.00 | 0.00 | 43 | 1019.9 |
| 20260502011753 | 49 | 317 | 1.7 | 3.5 | 0.00 | 0.00 | 0.00 | 43 | 1020.0 |
| 20260502011248 | 49 | 322 | 0.9 | 2.6 | 0.00 | 0.00 | 0.00 | 43 | 1019.9 |
| 20260502010746 | 50 | 323 | 1.7 | 5.2 | 0.00 | 0.00 | 0.00 | 41 | 1019.9 |
| 20260502010242 | 50 | 338 | 2.6 | 3.5 | 0.00 | 0.00 | 0.00 | 40 | 1020.0 |